TimeCDT,TemperatureF,Dew PointF,Humidity,Sea Level PressureIn,VisibilityMPH,Wind Direction,Wind SpeedMPH,Gust SpeedMPH,PrecipitationIn,Events,Conditions,WindDirDegrees,DateUTC
12:15 AM,68.5,62.6,81,30.11,10.0,ESE,4.6,-,N/A,,Scattered Clouds,110,2013-07-14 05:15:00
12:35 AM,68.0,62.6,83,30.12,10.0,ESE,4.6,-,N/A,,Mostly Cloudy,120,2013-07-14 05:35:00
12:55 AM,68.0,62.8,83,30.13,10.0,ESE,3.5,-,N/A,,Scattered Clouds,110,2013-07-14 05:55:00
1:15 AM,68.0,62.8,83,30.13,10.0,ESE,3.5,-,N/A,,Clear,110,2013-07-14 06:15:00
1:35 AM,68.5,63.1,83,30.13,10.0,Calm,Calm,-,N/A,,Clear,0,2013-07-14 06:35:00
1:55 AM,68.5,63.5,84,30.13,10.0,Calm,Calm,-,N/A,,Clear,0,2013-07-14 06:55:00
2:15 AM,68.7,63.3,83,30.13,10.0,ESE,3.5,-,N/A,,Clear,110,2013-07-14 07:15:00
2:35 AM,68.5,63.5,84,30.13,10.0,Calm,Calm,-,N/A,,Clear,0,2013-07-14 07:35:00
2:55 AM,68.0,63.5,85,30.13,10.0,ESE,3.5,-,N/A,,Clear,120,2013-07-14 07:55:00
3:15 AM,68.0,63.5,85,30.12,10.0,ESE,3.5,-,N/A,,Clear,120,2013-07-14 08:15:00
3:35 AM,68.0,63.5,85,30.12,10.0,ESE,4.6,-,N/A,,Clear,120,2013-07-14 08:35:00
3:55 AM,68.0,63.5,85,30.12,10.0,ESE,5.8,-,N/A,,Clear,110,2013-07-14 08:55:00
4:15 AM,67.6,63.7,87,30.13,10.0,ESE,4.6,-,N/A,,Clear,110,2013-07-14 09:15:00
4:35 AM,67.6,63.7,87,30.13,10.0,ESE,4.6,-,N/A,,Mostly Cloudy,120,2013-07-14 09:35:00
4:55 AM,67.5,63.5,87,30.13,10.0,ESE,4.6,-,N/A,,Mostly Cloudy,120,2013-07-14 09:55:00
5:15 AM,67.1,63.5,88,30.13,10.0,ESE,4.6,-,N/A,,Mostly Cloudy,120,2013-07-14 10:15:00
5:35 AM,66.9,63.5,89,30.13,10.0,ESE,5.8,-,N/A,,Scattered Clouds,120,2013-07-14 10:35:00
5:55 AM,66.2,63.0,89,30.14,10.0,ESE,4.6,-,N/A,,Clear,110,2013-07-14 10:55:00
6:15 AM,66.4,63.5,90,30.15,10.0,ESE,4.6,-,N/A,,Clear,120,2013-07-14 11:15:00
6:35 AM,67.3,63.0,86,30.15,10.0,ESE,4.6,-,N/A,,Clear,120,2013-07-14 11:35:00
6:55 AM,68.0,62.8,83,30.15,10.0,ESE,6.9,-,N/A,,Clear,120,2013-07-14 11:55:00
7:15 AM,68.5,63.0,82,30.16,10.0,ESE,8.1,-,N/A,,Clear,120,2013-07-14 12:15:00
7:35 AM,69.3,63.0,80,30.17,10.0,ESE,8.1,-,N/A,,Clear,120,2013-07-14 12:35:00
7:55 AM,70.7,63.1,77,30.17,10.0,ESE,8.1,-,N/A,,Clear,120,2013-07-14 12:55:00
8:15 AM,72.1,63.0,73,30.17,10.0,SSE,5.8,-,N/A,,Clear,150,2013-07-14 13:15:00
8:35 AM,73.8,62.1,67,30.18,10.0,SSE,5.8,-,N/A,,Clear,160,2013-07-14 13:35:00
8:55 AM,75.9,61.9,62,30.18,10.0,South,6.9,-,N/A,,Clear,170,2013-07-14 13:55:00
9:15 AM,76.3,61.9,61,30.18,10.0,SSE,10.4,-,N/A,,Clear,150,2013-07-14 14:15:00
9:35 AM,77.0,62.1,60,30.19,10.0,South,6.9,-,N/A,,Clear,170,2013-07-14 14:35:00
9:55 AM,78.1,61.5,57,30.20,10.0,South,9.2,-,N/A,,Clear,170,2013-07-14 14:55:00
10:15 AM,79.0,62.1,56,30.20,10.0,South,9.2,-,N/A,,Clear,170,2013-07-14 15:15:00
10:35 AM,79.9,61.5,53,30.20,10.0,South,13.8,-,N/A,,Clear,170,2013-07-14 15:35:00
10:55 AM,80.6,61.5,52,30.20,10.0,South,9.2,-,N/A,,Clear,190,2013-07-14 15:55:00
11:15 AM,81.7,61.5,50,30.20,10.0,SSW,9.2,-,N/A,,Clear,200,2013-07-14 16:15:00
11:35 AM,82.0,61.5,50,30.20,10.0,SSE,8.1,-,N/A,,Clear,150,2013-07-14 16:35:00
11:55 AM,82.4,61.3,49,30.20,10.0,SSE,11.5,-,N/A,,Clear,160,2013-07-14 16:55:00
12:15 PM,82.6,60.1,46,30.20,10.0,South,9.2,-,N/A,,Clear,190,2013-07-14 17:15:00
12:35 PM,82.8,59.7,45,30.20,10.0,South,8.1,-,N/A,,Clear,180,2013-07-14 17:35:00
12:55 PM,83.8,59.2,43,30.19,10.0,South,12.7,-,N/A,,Clear,170,2013-07-14 17:55:00
1:15 PM,83.1,60.3,46,30.19,10.0,SW,8.1,-,N/A,,Clear,220,2013-07-14 18:15:00
1:35 PM,83.5,59.4,44,30.19,10.0,South,8.1,-,N/A,,Clear,170,2013-07-14 18:35:00
1:55 PM,83.5,60.4,46,30.19,10.0,SSE,6.9,-,N/A,,Scattered Clouds,150,2013-07-14 18:55:00
2:15 PM,82.9,60.8,47,30.19,10.0,SE,8.1,-,N/A,,Mostly Cloudy,140,2013-07-14 19:15:00
2:35 PM,84.2,60.3,44,30.18,10.0,South,5.8,-,N/A,,Mostly Cloudy,170,2013-07-14 19:35:00
2:55 PM,85.5,59.5,41,30.18,10.0,South,10.4,-,N/A,,Scattered Clouds,190,2013-07-14 19:55:00
3:15 PM,85.6,59.4,41,30.18,10.0,SSE,12.7,-,N/A,,Clear,150,2013-07-14 20:15:00
3:35 PM,86.4,59.7,40,30.17,10.0,South,13.8,18.4,N/A,,Clear,180,2013-07-14 20:35:00
3:55 PM,86.0,59.5,41,30.18,10.0,SSE,9.2,-,N/A,,Scattered Clouds,160,2013-07-14 20:55:00
4:15 PM,86.4,60.1,41,30.17,10.0,SSE,8.1,-,N/A,,Clear,160,2013-07-14 21:15:00
4:35 PM,85.8,59.7,41,30.17,10.0,SSE,9.2,-,N/A,,Clear,160,2013-07-14 21:35:00
4:55 PM,85.1,60.4,43,30.17,10.0,South,6.9,-,N/A,,Clear,190,2013-07-14 21:55:00
5:15 PM,84.9,61.0,44,30.17,10.0,South,6.9,-,N/A,,Clear,190,2013-07-14 22:15:00
5:35 PM,84.7,61.0,45,30.17,10.0,South,8.1,-,N/A,,Clear,180,2013-07-14 22:35:00
5:55 PM,84.6,61.9,46,30.16,10.0,SE,5.8,-,N/A,,Clear,140,2013-07-14 22:55:00
6:15 PM,84.2,61.5,46,30.16,10.0,SSE,6.9,-,N/A,,Scattered Clouds,160,2013-07-14 23:15:00
6:35 PM,83.5,61.9,48,30.16,10.0,SSE,6.9,-,N/A,,Clear,150,2013-07-14 23:35:00
6:55 PM,83.1,61.9,49,30.16,10.0,SSE,5.8,-,N/A,,Clear,150,2013-07-14 23:55:00
7:15 PM,83.7,62.6,49,30.17,10.0,SSE,3.5,-,N/A,,Clear,150,2013-07-15 00:15:00
7:35 PM,82.4,64.0,54,30.17,10.0,SE,4.6,-,N/A,,Clear,140,2013-07-15 00:35:00
7:55 PM,80.6,65.1,59,30.17,10.0,SE,3.5,-,N/A,,Clear,140,2013-07-15 00:55:00
8:15 PM,79.7,65.3,61,30.17,10.0,Calm,Calm,-,N/A,,Clear,0,2013-07-15 01:15:00
8:35 PM,79.2,64.9,62,30.18,10.0,Calm,Calm,-,N/A,,Clear,0,2013-07-15 01:35:00
8:55 PM,77.9,66.0,67,30.18,10.0,Calm,Calm,-,N/A,,Clear,0,2013-07-15 01:55:00
9:15 PM,75.7,67.5,75,30.18,10.0,Calm,Calm,-,N/A,,Clear,0,2013-07-15 02:15:00
9:35 PM,75.6,66.2,73,30.19,10.0,ENE,4.6,-,N/A,,Clear,70,2013-07-15 02:35:00
9:55 PM,73.0,67.1,82,30.20,10.0,Calm,Calm,-,N/A,,Clear,0,2013-07-15 02:55:00
10:15 PM,72.9,65.8,79,30.20,10.0,Calm,Calm,-,N/A,,Clear,0,2013-07-15 03:15:00
10:35 PM,72.7,66.2,80,30.21,10.0,Calm,Calm,-,N/A,,Clear,0,2013-07-15 03:35:00
10:55 PM,70.9,65.7,83,30.21,10.0,East,3.5,-,N/A,,Clear,80,2013-07-15 03:55:00
11:15 PM,71.2,66.0,84,30.21,10.0,Calm,Calm,-,N/A,,Clear,0,2013-07-15 04:15:00
11:35 PM,69.8,65.7,87,30.22,10.0,Calm,Calm,-,N/A,,Clear,0,2013-07-15 04:35:00
11:55 PM,70.0,66.2,88,30.22,7.0,Calm,Calm,-,N/A,,Clear,0,2013-07-15 04:55:00